Time,TemperatureF,DewpointF,PressureIn,WindDirection,WindDirectionDegrees,WindSpeedMPH,WindSpeedGustMPH,Humidity,HourlyPrecipIn,Conditions,Clouds,dailyrainin,SoftwareType,DateUTC
2013-04-11 00:02:00,35.0,32.0,29.99,NNE,33,2.0,10.0,88,0.02,,,1.22,,2013-04-11 05:02:00,
2013-04-11 00:13:00,35.0,32.0,29.99,NNE,33,2.0,10.0,88,0.02,,,1.22,,2013-04-11 05:13:00,
2013-04-11 00:22:00,35.0,32.0,29.98,ENE,68,0.0,11.0,88,0.03,,,1.22,,2013-04-11 05:22:00,
2013-04-11 00:32:00,35.0,32.0,29.98,NNE,28,2.0,8.0,89,0.02,,,1.20,,2013-04-11 05:32:00,
2013-04-11 00:42:00,35.0,32.0,29.98,NNE,28,2.0,8.0,89,0.02,,,1.20,,2013-04-11 05:42:00,
2013-04-11 00:52:00,35.0,32.0,29.98,ENE,58,4.0,9.0,89,0.02,,,1.14,,2013-04-11 05:52:00,
2013-04-11 01:02:00,36.0,33.0,29.99,ESE,103,2.0,8.0,89,0.04,,,1.07,,2013-04-11 06:02:00,
2013-04-11 01:12:00,36.0,33.0,29.99,ESE,103,2.0,8.0,89,0.04,,,1.07,,2013-04-11 06:12:00,
2013-04-11 01:22:00,36.0,33.0,29.98,NE,55,2.0,11.0,89,0.05,,,1.08,,2013-04-11 06:22:00,
2013-04-11 01:32:00,35.0,32.0,29.95,NE,47,3.0,14.0,89,0.07,,,1.01,,2013-04-11 06:32:00,
2013-04-11 01:42:00,35.0,32.0,29.95,NE,47,3.0,14.0,89,0.07,,,1.01,,2013-04-11 06:42:00,
2013-04-11 01:52:00,35.0,32.0,29.86,ENE,78,5.0,16.0,89,0.06,,,0.98,,2013-04-11 06:52:00,
2013-04-11 02:02:00,34.0,31.0,29.81,East,86,6.0,28.0,90,0.04,,,0.92,,2013-04-11 07:02:00,
2013-04-11 02:12:00,34.0,31.0,29.81,East,86,6.0,28.0,90,0.04,,,0.92,,2013-04-11 07:12:00,
2013-04-11 02:22:00,34.0,31.0,29.82,ENE,57,12.0,19.0,89,0.03,,,0.86,,2013-04-11 07:22:00,
2013-04-11 02:32:00,35.0,32.0,29.88,East,86,5.0,13.0,89,0.01,,,0.68,,2013-04-11 07:32:00,
2013-04-11 02:42:00,35.0,32.0,29.88,East,86,5.0,13.0,89,0.01,,,0.68,,2013-04-11 07:42:00,
2013-04-11 02:52:00,35.0,32.0,29.91,ENE,67,5.0,16.0,88,0.00,,,0.58,,2013-04-11 07:52:00,
2013-04-11 03:02:00,35.0,32.0,29.91,East,93,3.0,14.0,88,0.00,,,0.55,,2013-04-11 08:02:00,
2013-04-11 03:12:00,35.0,32.0,29.91,East,93,3.0,14.0,88,0.00,,,0.55,,2013-04-11 08:12:00,
2013-04-11 03:22:00,35.0,32.0,29.88,East,85,2.0,13.0,88,0.00,,,0.47,,2013-04-11 08:22:00,
2013-04-11 03:32:00,35.0,32.0,29.88,ENE,69,3.0,13.0,88,0.00,,,0.47,,2013-04-11 08:32:00,
2013-04-11 03:42:00,35.0,32.0,29.88,ENE,69,3.0,13.0,88,0.00,,,0.47,,2013-04-11 08:42:00,
2013-04-11 03:52:00,35.0,32.0,29.89,East,79,5.0,8.0,88,0.00,,,0.47,,2013-04-11 08:52:00,
2013-04-11 04:02:00,35.0,32.0,29.88,East,96,5.0,9.0,88,0.00,,,0.47,,2013-04-11 09:02:00,
2013-04-11 04:12:00,35.0,32.0,29.88,East,96,5.0,9.0,88,0.00,,,0.47,,2013-04-11 09:12:00,
2013-04-11 04:22:00,35.0,32.0,29.88,NE,49,7.0,13.0,88,0.00,,,0.44,,2013-04-11 09:22:00,
2013-04-11 04:33:00,35.0,32.0,29.86,ENE,77,5.0,13.0,88,0.00,,,0.31,,2013-04-11 09:33:00,
2013-04-11 04:43:00,35.0,32.0,29.86,ENE,77,5.0,13.0,88,0.00,,,0.31,,2013-04-11 09:43:00,
2013-04-11 04:52:00,35.0,32.0,29.86,East,80,6.0,9.0,88,0.00,,,0.27,,2013-04-11 09:52:00,
2013-04-11 05:02:00,35.0,32.0,29.84,East,86,5.0,13.0,88,0.00,,,0.20,,2013-04-11 10:02:00,
2013-04-11 05:12:00,35.0,32.0,29.84,ENE,73,7.0,17.0,88,0.00,,,0.16,,2013-04-11 10:12:00,
2013-04-11 05:23:00,35.0,32.0,29.84,ENE,73,7.0,17.0,88,0.00,,,0.16,,2013-04-11 10:23:00,
2013-04-11 05:32:00,35.0,32.0,29.84,ENE,65,5.0,11.0,88,0.00,,,0.15,,2013-04-11 10:32:00,
2013-04-11 05:42:00,35.0,32.0,29.84,ENE,65,5.0,11.0,88,0.00,,,0.15,,2013-04-11 10:42:00,
2013-04-11 05:52:00,35.0,32.0,29.83,ENE,78,4.0,12.0,89,0.01,,,0.16,,2013-04-11 10:52:00,
2013-04-11 06:02:00,35.0,32.0,29.83,ENE,78,4.0,12.0,89,0.01,,,0.16,,2013-04-11 11:02:00,
2013-04-11 06:12:00,34.0,31.0,29.83,ESE,122,5.0,10.0,89,0.02,,,0.17,,2013-04-11 11:12:00,
2013-04-11 06:22:00,34.0,31.0,29.84,East,79,5.0,12.0,89,0.02,,,0.17,,2013-04-11 11:22:00,
2013-04-11 06:32:00,34.0,31.0,29.83,East,82,7.0,13.0,89,0.02,,,0.17,,2013-04-11 11:32:00,
2013-04-11 06:42:00,34.0,31.0,29.83,East,82,7.0,13.0,89,0.02,,,0.17,,2013-04-11 11:42:00,
2013-04-11 06:52:00,34.0,31.0,29.82,East,91,3.0,13.0,90,0.02,,,0.17,,2013-04-11 11:52:00,
2013-04-11 07:02:00,34.0,31.0,29.81,SSE,165,4.0,13.0,90,0.00,,,0.17,,2013-04-11 12:02:00,
2013-04-11 07:12:00,34.0,31.0,29.81,SSE,165,4.0,13.0,90,0.00,,,0.17,,2013-04-11 12:12:00,
2013-04-11 07:22:00,34.0,31.0,29.80,East,86,5.0,15.0,90,0.00,,,0.17,,2013-04-11 12:22:00,
2013-04-11 07:32:00,34.0,31.0,29.81,ENE,74,4.0,13.0,90,0.00,,,0.17,,2013-04-11 12:32:00,
2013-04-11 07:42:00,34.0,31.0,29.81,ENE,74,4.0,13.0,90,0.00,,,0.17,,2013-04-11 12:42:00,
2013-04-11 07:52:00,34.0,32.0,29.81,East,88,6.0,13.0,91,0.00,,,0.17,,2013-04-11 12:52:00,
2013-04-11 08:02:00,34.0,32.0,29.80,ENE,65,7.0,12.0,91,0.02,,,0.19,,2013-04-11 13:02:00,
2013-04-11 08:12:00,34.0,32.0,29.79,ENE,74,7.0,14.0,91,0.03,,,0.20,,2013-04-11 13:12:00,
2013-04-11 08:22:00,34.0,32.0,29.79,ENE,74,7.0,14.0,91,0.03,,,0.20,,2013-04-11 13:22:00,
2013-04-11 08:32:00,34.0,32.0,29.79,ENE,64,3.0,16.0,91,0.03,,,0.20,,2013-04-11 13:32:00,
2013-04-11 08:43:00,34.0,32.0,29.79,ENE,64,3.0,16.0,91,0.03,,,0.20,,2013-04-11 13:43:00,
2013-04-11 08:54:00,35.0,33.0,29.81,ENE,71,7.0,15.0,91,0.03,,,0.21,,2013-04-11 13:54:00,
2013-04-11 09:02:00,35.0,33.0,29.80,ESE,117,7.0,18.0,91,0.02,,,0.21,,2013-04-11 14:02:00,
2013-04-11 09:12:00,35.0,33.0,29.80,ESE,117,7.0,18.0,91,0.02,,,0.21,,2013-04-11 14:12:00,
2013-04-11 09:22:00,35.0,33.0,29.79,East,94,6.0,14.0,91,0.02,,,0.22,,2013-04-11 14:22:00,
2013-04-11 09:32:00,35.0,33.0,29.78,ENE,61,8.0,13.0,91,0.02,,,0.22,,2013-04-11 14:32:00,
2013-04-11 09:42:00,35.0,33.0,29.78,ENE,61,8.0,13.0,91,0.02,,,0.22,,2013-04-11 14:42:00,
2013-04-11 09:52:00,35.0,33.0,29.78,East,88,8.0,15.0,91,0.03,,,0.24,,2013-04-11 14:52:00,
2013-04-11 10:02:00,35.0,33.0,29.81,NNE,17,4.0,11.0,91,0.03,,,0.24,,2013-04-11 15:02:00,
2013-04-11 10:12:00,35.0,33.0,29.80,East,88,10.0,13.0,91,0.03,,,0.25,,2013-04-11 15:12:00,
2013-04-11 10:22:00,35.0,33.0,29.80,East,88,10.0,13.0,91,0.03,,,0.25,,2013-04-11 15:22:00,
2013-04-11 10:32:00,35.0,33.0,29.78,ENE,65,4.0,14.0,91,0.04,,,0.26,,2013-04-11 15:32:00,
2013-04-11 10:43:00,35.0,33.0,29.78,ENE,65,4.0,14.0,91,0.04,,,0.26,,2013-04-11 15:43:00,
2013-04-11 10:52:00,35.0,33.0,29.79,ENE,75,5.0,13.0,91,0.02,,,0.26,,2013-04-11 15:52:00,
2013-04-11 11:02:00,35.0,33.0,29.78,East,87,5.0,13.0,91,0.04,,,0.28,,2013-04-11 16:02:00,
2013-04-11 11:12:00,35.0,33.0,29.78,East,87,5.0,13.0,91,0.04,,,0.28,,2013-04-11 16:12:00,
2013-04-11 11:22:00,36.0,34.0,29.78,East,84,5.0,12.0,91,0.06,,,0.31,,2013-04-11 16:22:00,
2013-04-11 11:32:00,36.0,34.0,29.79,ENE,67,2.0,11.0,91,0.05,,,0.31,,2013-04-11 16:32:00,
2013-04-11 11:42:00,36.0,34.0,29.79,ENE,67,2.0,11.0,91,0.05,,,0.31,,2013-04-11 16:42:00,
2013-04-11 11:52:00,36.0,34.0,29.79,ENE,63,8.0,9.0,91,0.05,,,0.31,,2013-04-11 16:52:00,
2013-04-11 12:02:00,36.0,34.0,29.78,ENE,62,1.0,11.0,92,0.04,,,0.31,,2013-04-11 17:02:00,
2013-04-11 12:12:00,36.0,34.0,29.78,ENE,62,1.0,11.0,92,0.04,,,0.31,,2013-04-11 17:12:00,
2013-04-11 12:23:00,37.0,35.0,29.76,East,85,5.0,14.0,92,0.01,,,0.30,,2013-04-11 17:23:00,
2013-04-11 12:32:00,37.0,35.0,29.75,East,84,5.0,14.0,92,0.01,,,0.30,,2013-04-11 17:32:00,
2013-04-11 12:42:00,37.0,35.0,29.75,East,84,5.0,14.0,92,0.01,,,0.30,,2013-04-11 17:42:00,
2013-04-11 12:52:00,37.0,35.0,29.74,ENE,61,7.0,11.0,91,0.01,,,0.30,,2013-04-11 17:52:00,
2013-04-11 13:02:00,37.0,35.0,29.74,East,84,6.0,14.0,91,0.00,,,0.30,,2013-04-11 18:02:00,
2013-04-11 13:13:00,37.0,35.0,29.74,East,84,6.0,14.0,91,0.00,,,0.30,,2013-04-11 18:13:00,
2013-04-11 13:22:00,37.0,35.0,29.74,East,81,0.0,12.0,91,0.00,,,0.30,,2013-04-11 18:22:00,
2013-04-11 13:33:00,37.0,35.0,29.75,SE,129,3.0,12.0,92,0.00,,,0.30,,2013-04-11 18:33:00,
2013-04-11 13:42:00,37.0,35.0,29.75,SE,129,3.0,12.0,92,0.00,,,0.30,,2013-04-11 18:42:00,
2013-04-11 13:52:00,37.0,35.0,29.73,SE,128,4.0,15.0,91,0.00,,,0.30,,2013-04-11 18:52:00,
2013-04-11 14:03:00,37.0,35.0,29.74,East,84,3.0,13.0,91,0.00,,,0.30,,2013-04-11 19:03:00,
2013-04-11 14:13:00,37.0,35.0,29.74,East,84,3.0,13.0,91,0.00,,,0.30,,2013-04-11 19:13:00,
2013-04-11 14:22:00,37.0,35.0,29.73,East,90,7.0,13.0,91,0.00,,,0.30,,2013-04-11 19:22:00,
2013-04-11 14:32:00,37.0,35.0,29.73,ENE,62,4.0,13.0,92,0.01,,,0.31,,2013-04-11 19:32:00,
2013-04-11 14:43:00,37.0,35.0,29.73,ENE,62,4.0,13.0,92,0.01,,,0.31,,2013-04-11 19:43:00,
2013-04-11 14:52:00,37.0,35.0,29.73,NE,36,3.0,15.0,91,0.01,,,0.31,,2013-04-11 19:52:00,
2013-04-11 15:02:00,37.0,35.0,29.73,ENE,69,1.0,11.0,91,0.01,,,0.31,,2013-04-11 20:02:00,
2013-04-11 15:13:00,37.0,35.0,29.73,ENE,69,1.0,11.0,91,0.01,,,0.31,,2013-04-11 20:13:00,
2013-04-11 15:22:00,37.0,35.0,29.73,East,92,3.0,14.0,92,0.01,,,0.31,,2013-04-11 20:22:00,
2013-04-11 15:33:00,37.0,35.0,29.72,ENE,71,8.0,13.0,92,0.01,,,0.30,,2013-04-11 20:33:00,
2013-04-11 15:42:00,37.0,35.0,29.72,ENE,71,8.0,13.0,92,0.01,,,0.30,,2013-04-11 20:42:00,
2013-04-11 15:52:00,37.0,35.0,29.71,East,86,3.0,13.0,91,0.00,,,0.29,,2013-04-11 20:52:00,
2013-04-11 16:02:00,37.0,35.0,29.71,East,82,2.0,9.0,91,0.00,,,0.29,,2013-04-11 21:02:00,
2013-04-11 16:12:00,37.0,35.0,29.71,East,82,2.0,9.0,91,0.00,,,0.29,,2013-04-11 21:12:00,
2013-04-11 16:22:00,37.0,35.0,29.72,ENE,76,3.0,11.0,92,0.00,,,0.28,,2013-04-11 21:22:00,
2013-04-11 16:33:00,36.0,34.0,29.71,NE,53,3.0,11.0,91,0.00,,,0.28,,2013-04-11 21:33:00,
2013-04-11 16:42:00,36.0,34.0,29.71,NE,53,3.0,11.0,91,0.00,,,0.28,,2013-04-11 21:42:00,
2013-04-11 16:53:00,36.0,34.0,29.70,East,80,5.0,13.0,91,0.00,,,0.28,,2013-04-11 21:53:00,
2013-04-11 17:03:00,36.0,34.0,29.71,NE,53,3.0,14.0,92,0.00,,,0.28,,2013-04-11 22:03:00,
2013-04-11 17:13:00,36.0,34.0,29.71,NE,53,3.0,14.0,92,0.00,,,0.28,,2013-04-11 22:13:00,
2013-04-11 17:23:00,36.0,34.0,29.71,ENE,69,4.0,14.0,91,0.00,,,0.28,,2013-04-11 22:23:00,
2013-04-11 17:33:00,36.0,34.0,29.71,East,101,6.0,15.0,91,0.00,,,0.28,,2013-04-11 22:33:00,
2013-04-11 17:44:00,36.0,34.0,29.71,East,101,6.0,15.0,91,0.00,,,0.28,,2013-04-11 22:44:00,
2013-04-11 17:52:00,36.0,34.0,29.72,NE,43,2.0,11.0,91,0.00,,,0.28,,2013-04-11 22:52:00,
2013-04-11 18:03:00,36.0,34.0,29.72,ENE,63,4.0,10.0,92,0.00,,,0.28,,2013-04-11 23:03:00,
2013-04-11 18:12:00,36.0,34.0,29.72,ENE,63,4.0,10.0,92,0.00,,,0.28,,2013-04-11 23:12:00,
2013-04-11 18:22:00,36.0,34.0,29.73,NE,56,5.0,9.0,92,0.00,,,0.28,,2013-04-11 23:22:00,
2013-04-11 18:32:00,36.0,34.0,29.72,NE,46,3.0,11.0,92,0.00,,,0.28,,2013-04-11 23:32:00,
2013-04-11 18:42:00,36.0,34.0,29.72,NE,46,3.0,11.0,92,0.00,,,0.28,,2013-04-11 23:42:00,
2013-04-11 18:53:00,36.0,34.0,29.70,NE,55,5.0,9.0,92,0.00,,,0.28,,2013-04-11 23:53:00,
2013-04-11 19:02:00,35.0,33.0,29.68,ENE,76,2.0,11.0,92,0.00,,,0.28,,2013-04-12 00:02:00,
2013-04-11 19:12:00,35.0,33.0,29.68,ENE,76,2.0,11.0,92,0.00,,,0.28,,2013-04-12 00:12:00,
2013-04-11 19:22:00,35.0,33.0,29.64,NE,55,3.0,14.0,92,0.00,,,0.28,,2013-04-12 00:22:00,
2013-04-11 19:32:00,35.0,33.0,29.62,SE,140,3.0,14.0,92,0.00,,,0.28,,2013-04-12 00:32:00,
2013-04-11 19:42:00,35.0,33.0,29.62,SE,140,3.0,14.0,92,0.00,,,0.28,,2013-04-12 00:42:00,
2013-04-11 19:52:00,35.0,33.0,29.64,ESE,115,4.0,12.0,92,0.00,,,0.28,,2013-04-12 00:52:00,
2013-04-11 20:02:00,35.0,33.0,29.68,ESE,105,4.0,9.0,92,0.00,,,0.28,,2013-04-12 01:02:00,
2013-04-11 20:12:00,35.0,33.0,29.68,ESE,105,4.0,9.0,92,0.00,,,0.28,,2013-04-12 01:12:00,
2013-04-11 20:22:00,35.0,33.0,29.68,ENE,60,4.0,9.0,91,0.00,,,0.28,,2013-04-12 01:22:00,
2013-04-11 20:32:00,35.0,33.0,29.68,ENE,67,4.0,9.0,91,0.00,,,0.28,,2013-04-12 01:32:00,
2013-04-11 20:42:00,35.0,33.0,29.68,ENE,67,4.0,9.0,91,0.00,,,0.28,,2013-04-12 01:42:00,
2013-04-11 20:52:00,35.0,33.0,29.67,ENE,73,1.0,8.0,91,0.00,,,0.28,,2013-04-12 01:52:00,
2013-04-11 21:03:00,35.0,33.0,29.66,ENE,70,4.0,6.0,92,0.00,,,0.28,,2013-04-12 02:03:00,
2013-04-11 21:12:00,35.0,33.0,29.66,ENE,70,4.0,6.0,92,0.00,,,0.28,,2013-04-12 02:12:00,
2013-04-11 21:22:00,35.0,33.0,29.66,East,80,7.0,8.0,92,0.00,,,0.28,,2013-04-12 02:22:00,
2013-04-11 21:32:00,35.0,33.0,29.65,NE,52,5.0,8.0,92,0.00,,,0.28,,2013-04-12 02:32:00,
2013-04-11 21:42:00,35.0,33.0,29.65,NE,52,5.0,8.0,92,0.00,,,0.28,,2013-04-12 02:42:00,
2013-04-11 21:52:00,34.0,32.0,29.65,East,91,3.0,10.0,92,0.00,,,0.28,,2013-04-12 02:52:00,
2013-04-11 22:02:00,34.0,32.0,29.65,ENE,73,3.0,7.0,92,0.00,,,0.28,,2013-04-12 03:02:00,
2013-04-11 22:12:00,34.0,32.0,29.65,ENE,73,3.0,7.0,92,0.00,,,0.28,,2013-04-12 03:12:00,
2013-04-11 22:22:00,34.0,32.0,29.65,ESE,107,2.0,8.0,92,0.00,,,0.28,,2013-04-12 03:22:00,
2013-04-11 22:33:00,34.0,32.0,29.66,NNE,33,3.0,8.0,92,0.00,,,0.28,,2013-04-12 03:33:00,
2013-04-11 22:43:00,34.0,32.0,29.66,NNE,33,3.0,8.0,92,0.00,,,0.28,,2013-04-12 03:43:00,
2013-04-11 22:52:00,34.0,32.0,29.65,ENE,73,5.0,10.0,92,0.01,,,0.29,,2013-04-12 03:52:00,
2013-04-11 23:03:00,34.0,32.0,29.66,ENE,68,3.0,7.0,92,0.01,,,0.29,,2013-04-12 04:03:00,
2013-04-11 23:13:00,34.0,32.0,29.66,ENE,68,3.0,7.0,92,0.01,,,0.29,,2013-04-12 04:13:00,
2013-04-11 23:22:00,34.0,32.0,29.65,ENE,64,3.0,9.0,92,0.01,,,0.29,,2013-04-12 04:22:00,
2013-04-11 23:33:00,34.0,32.0,29.65,East,80,5.0,10.0,92,0.01,,,0.28,,2013-04-12 04:33:00,
2013-04-11 23:43:00,34.0,32.0,29.65,East,80,5.0,10.0,92,0.01,,,0.28,,2013-04-12 04:43:00,
2013-04-11 23:52:00,34.0,32.0,29.65,ENE,69,2.0,8.0,92,0.00,,,0.27,,2013-04-12 04:52:00,